Weather History for Gwinn, MI

Change the Weather History Date:

Monday, October 21, 2013

  Actual Average (KESC) Record (KESC)
Temperature  
Mean Temperature 33 °F -  
Max Temperature 37 °F 51 °F 66 °F (1953)
Min Temperature 29 °F 38 °F 26 °F (1960)
Degree Days  
Heating Degree Days 32    
Moisture  
Dew Point 30 °F    
Average Humidity 86    
Maximum Humidity 100    
Minimum Humidity 60    
Precipitation  
Precipitation 0.01 in - - ()
Sea Level Pressure  
Sea Level Pressure 29.65 in    
Wind  
Wind Speed 6 mph (West)    
Max Wind Speed 21 mph    
Max Gust Speed 29 mph    
Visibility 9 miles    
Events Rain , Snow    
Averages and records for this station are not official NWS values.
T = Trace of Precipitation, MM = Missing Value Source: NWS Daily Summary

Daily Weather History Graph

Daily Weather History Graph

Search for Another Location

Airport:

Trip Planner

Search our weather history database for the weather conditions in past years. The results will help you decide how hot, cold, wet, or windy it might be!

Date:

Astronomy

Oct. 21, 2013 Rise Set
Actual Time 8:15 AM EDT 6:52 PM EDT
Civil Twilight 7:44 AM EDT 7:22 PM EDT
Nautical Twilight 7:09 AM EDT 7:57 PM EDT
Astronomical Twilight 6:35 AM EDT 8:32 PM EDT
Moon 8:36 PM EDT (10/21) 10:58 AM EDT (10/21)
Length of Visible Light 11h 37m
Length of Day
10h 36m
Waning Gibbous, 93% of the Moon is Illuminated
Oct 21
Waning Gibbous
Oct 26
Last Quarter
Nov 3
New
Nov 10
First Quarter
Nov 17
Full

Hourly Weather History & Observations

Time (EDT) Temp. Windchill Dew Point Humidity Pressure Visibility Wind Dir Wind Speed Gust Speed Precip Events Conditions
12:16 AM 35.6 °F - 34.3 °F 95% 29.64 in 7.0 mi Calm Calm - N/A Rain Light Rain
12:36 AM 35.2 °F - 34.3 °F 97% 29.63 in 7.0 mi Calm Calm - N/A   Overcast
12:57 AM 35.2 °F - 34.3 °F 97% 29.62 in 7.0 mi Calm Calm - 0.01 in Rain Light Rain
1:16 AM 35.6 °F - 34.7 °F 97% 29.62 in 10.0 mi Calm Calm - N/A   Overcast
1:37 AM 35.6 °F - 34.7 °F 97% 29.61 in 10.0 mi Calm Calm - N/A   Drizzle
1:56 AM 35.4 °F - 34.7 °F 97% 29.61 in 7.0 mi Calm Calm - N/A Rain Light Rain
2:17 AM 35.2 °F 32.4 °F 34.7 °F 98% 29.61 in 7.0 mi WNW 3.5 mph - N/A Rain Light Rain
2:36 AM 35.6 °F - 34.7 °F 97% 29.61 in 7.0 mi Calm Calm - N/A Rain Light Rain
2:56 AM 35.6 °F 32.8 °F 34.9 °F 97% 29.61 in 10.0 mi WNW 3.5 mph - N/A Rain Light Rain
3:17 AM 35.8 °F 31.9 °F 34.9 °F 97% 29.61 in 10.0 mi WNW 4.6 mph - N/A Rain Rain
3:36 AM 35.6 °F 30.7 °F 34.5 °F 96% 29.62 in 10.0 mi West 5.8 mph - N/A   Light Drizzle
3:57 AM 35.4 °F 31.5 °F 34.3 °F 96% 29.61 in 10.0 mi West 4.6 mph - N/A   Light Drizzle
4:16 AM 35.2 °F 30.3 °F 34.0 °F 95% 29.61 in 10.0 mi West 5.8 mph - N/A   Overcast
4:37 AM 35.2 °F 29.5 °F 34.2 °F 96% 29.62 in 10.0 mi West 6.9 mph - N/A   Overcast
4:56 AM 35.1 °F 30.1 °F 34.0 °F 96% 29.62 in 10.0 mi West 5.8 mph - N/A   Overcast
5:16 AM 35.2 °F 29.5 °F 34.0 °F 95% 29.62 in 10.0 mi West 6.9 mph - N/A   Overcast
5:37 AM 35.1 °F 29.3 °F 34.0 °F 96% 29.62 in 10.0 mi West 6.9 mph - N/A   Overcast
5:56 AM 34.9 °F 29.0 °F 33.8 °F 96% 29.62 in 10.0 mi West 6.9 mph - N/A   Overcast
6:55 AM 33.8 °F 27.0 °F 33.8 °F 100% 29.63 in 10.0 mi West 8.1 mph - N/A   Overcast
7:50 AM 35.6 °F 27.5 °F 33.8 °F 93% 29.65 in 10.0 mi West 11.5 mph - N/A   Overcast
8:55 AM 35.6 °F 29.2 °F 33.8 °F 93% 29.66 in 10.0 mi West 8.1 mph 18.4 mph N/A   Mostly Cloudy
9:55 AM 37.4 °F 28.2 °F 33.8 °F 87% 29.67 in 10.0 mi West 16.1 mph 23.0 mph N/A   Scattered Clouds
10:50 AM 37.4 °F 28.2 °F 32.0 °F 81% 29.67 in 10.0 mi WNW 16.1 mph 21.9 mph N/A   Mostly Cloudy
11:50 AM 37.4 °F 27.2 °F 32.0 °F 81% 29.69 in 10.0 mi West 19.6 mph 28.8 mph N/A   Overcast
12:55 PM 37.4 °F 27.5 °F 28.4 °F 70% 29.70 in 10.0 mi West 18.4 mph 26.5 mph N/A   Overcast
1:05 PM 35.6 °F 25.2 °F 30.2 °F 81% 29.71 in 5.0 mi West 18.4 mph 26.5 mph N/A Snow Light Snow
1:19 PM 35.6 °F 25.5 °F 30.2 °F 81% 29.70 in 7.0 mi SSE 17.3 mph - N/A   Overcast
1:50 PM 37.4 °F 26.9 °F 26.6 °F 65% 29.70 in 10.0 mi West 20.7 mph - N/A   Mostly Cloudy
2:50 PM 35.6 °F 25.5 °F 24.8 °F 65% 29.69 in 10.0 mi West 17.3 mph 24.2 mph N/A   Overcast
3:50 PM 35.6 °F 26.6 °F 26.6 °F 70% 29.60 in 10.0 mi West 13.8 mph 17.3 mph N/A   Overcast
4:55 PM 33.8 °F 24.3 °F 23.0 °F 65% 29.70 in 10.0 mi West 13.8 mph 24.2 mph N/A   Overcast
5:55 PM 33.8 °F 23.9 °F 23.0 °F 65% 29.70 in 10.0 mi West 15.0 mph 19.6 mph N/A   Mostly Cloudy
6:50 PM 33.8 °F 27.0 °F 21.2 °F 60% 29.71 in 10.0 mi West 8.1 mph - N/A   Overcast
8:50 PM 32.0 °F 23.0 °F 23.0 °F 69% 29.70 in 10.0 mi SW 11.5 mph 17.3 mph N/A   Scattered Clouds
9:50 PM 30.2 °F 20.8 °F 24.8 °F 80% 29.68 in 10.0 mi SW 11.5 mph 17.3 mph N/A   Mostly Cloudy
10:17 PM 30.2 °F 20.8 °F 25.0 °F 81% 29.68 in 10.0 mi SW 11.5 mph - N/A   Scattered Clouds
10:36 PM 29.8 °F 19.8 °F 24.8 °F 81% 29.67 in 10.0 mi WSW 12.7 mph - N/A   Clear
10:56 PM 29.7 °F 20.1 °F 24.8 °F 82% 29.67 in 10.0 mi SW 11.5 mph 18.4 mph N/A   Clear
11:17 PM 29.7 °F 19.6 °F 24.6 °F 81% 29.65 in 10.0 mi SW 12.7 mph 18.4 mph N/A   Clear
11:36 PM 30.2 °F 20.8 °F 24.8 °F 80% 29.64 in 10.0 mi SW 11.5 mph 18.4 mph N/A   Mostly Cloudy
11:57 PM 30.2 °F 20.2 °F 25.2 °F 82% 29.63 in 10.0 mi SW 12.7 mph - N/A   Overcast